[[{"header":{"parameterUnit":"m.s-1","parameterCategory":1,"la1":30.2991,"la2":30.254,"lo1":-89.0895,"lo2":-89.0444,"dy":0.0017,"dx":0.0017,"nx":28,"ny":28,"refTime":"2024-04-14T09:00:00:Z","depth":0,"parameterNumber":2,"parameterNumberName":"U-component_of_WINDS"},"data":[0,0,0,0,0,0,0,0,0,0,0,0,0,0,0,0,0,0,0,0,0,0,0,0,0,0,0,0,0,0,0,0,0,0,0,0,0,0,0,0,0,0,0,0,0,0,0,0,0,0,0,0,0,0,0,0,0,0,-1.8606,-1.8606,0,-1.8584,-1.8584,-1.8583,-1.8541,-1.854,-1.8539,-1.8538,-1.8516,-1.8516,-1.8516,0,0,0,0,0,0,0,0,0,0,0,0,0,-1.8612,-1.8612,-1.8606,-1.8606,-1.8605,-1.8584,-1.8584,-1.8583,-1.8541,-1.854,-1.8539,-1.8538,-1.8516,-1.8516,-1.8516,0,0,0,0,0,0,0,0,0,0,0,0,0,-1.8602,-1.8612,-1.8606,-1.8582,-1.8579,-1.8584,-1.8584,-1.8583,-1.8541,-1.854,-1.8539,-1.8537,-1.8516,-1.8516,-1.8516,-1.8543,0,0,-1.8517,-1.8517,0,0,0,0,0,0,0,0,-1.8602,-1.8601,-1.8585,-1.8583,-1.8581,-1.8564,-1.8577,-1.857,-1.8541,-1.8556,-1.8538,-1.8537,-1.8533,-1.8531,-1.853,-1.8542,-1.8541,-1.8517,-1.8517,-1.8517,-1.8517,0,0,0,0,0,0,0,-1.8603,-1.8602,-1.8597,-1.8585,-1.8582,-1.8572,-1.8569,-1.8576,-1.8551,-1.8554,-1.8551,-1.8549,-1.8531,-1.853,-1.8529,-1.8541,-1.8517,-1.8517,-1.8517,-1.8517,-1.8574,-1.8575,0,0,0,0,0,0,-1.8607,-1.8603,-1.8598,-1.8597,-1.8588,-1.8573,-1.857,-1.857,-1.8551,-1.8547,-1.855,-1.8547,-1.853,-1.8529,-1.8528,-1.8558,-1.8517,-1.8517,-1.8518,-1.8573,-1.8574,-1.8576,0,0,0,0,0,0,-1.8607,-1.8607,-1.8599,-1.8599,-1.8597,-1.8574,-1.8575,-1.8571,-1.8569,-1.8548,-1.8544,-1.8553,-1.8529,-1.8528,-1.854,-1.8557,-1.8518,-1.8518,-1.8571,-1.8573,-1.8575,-1.8619,0,0,0,0,0,0,-1.8608,-1.8607,-1.8617,-1.8599,-1.8597,-1.861,-1.8576,-1.8571,-1.857,-1.8566,-1.855,-1.8546,-1.8528,-1.854,-1.854,-1.8557,-1.8518,-1.8569,-1.8572,-1.8574,-1.8616,-1.8622,-1.8628,0,0,0,0,0,-1.8608,-1.863,-1.8618,-1.8617,-1.8609,-1.8611,-1.861,-1.8589,-1.8572,-1.8581,-1.8568,-1.8547,-1.8556,-1.8541,-1.8541,-1.8558,-1.8568,-1.8571,-1.8574,-1.8613,-1.8621,-1.8628,0,0,0,0,0,0,-1.865,-1.8627,-1.8613,-1.863,-1.8623,-1.8604,-1.8615,-1.8598,-1.8595,-1.8591,-1.8565,-1.8562,-1.8578,-1.8569,-1.8554,-1.8584,-1.8559,-1.8562,-1.8588,-1.8595,-1.8601,-1.8602,-1.8518,0,0,0,0,0,-1.8661,-1.8665,-1.8645,-1.8662,-1.8659,-1.8639,-1.8639,-1.8623,-1.8615,-1.8611,-1.8599,-1.8592,-1.8593,-1.8594,-1.8594,-1.8615,-1.8611,-1.8627,-1.8633,-1.8638,-1.8641,-1.8652,-1.8659,-1.8586,-1.8586,-1.8586,0,0,-1.8684,-1.8673,-1.8676,-1.867,-1.8663,-1.8668,-1.8636,-1.8642,-1.8646,-1.8612,-1.8622,-1.8614,-1.8604,-1.8621,-1.8627,-1.8614,-1.866,-1.8642,-1.8646,-1.8646,-1.8656,-1.8663,-1.8669,-1.8588,-1.8587,-1.8587,0,0,-1.8729,-1.872,-1.8733,-1.8727,-1.8717,-1.8703,-1.8706,-1.869,-1.8683,-1.8693,-1.8668,-1.8672,-1.8675,-1.8669,-1.8666,-1.8711,-1.8691,-1.8712,-1.8742,-1.8753,-1.8759,-1.8764,-1.8779,-1.8785,-1.8715,-1.8715,-1.8715,0,-1.8758,-1.8764,-1.8742,-1.8751,-1.8749,-1.872,-1.8733,-1.8728,-1.8718,-1.8718,-1.8703,-1.8706,-1.8698,-1.8713,-1.8724,-1.8723,-1.8726,-1.8712,-1.876,-1.8765,-1.8769,-1.8783,-1.8789,-1.8717,-1.8717,-1.8717,-1.8716,0,-1.8802,-1.8807,-1.8819,-1.881,-1.881,-1.8821,-1.8801,-1.8803,-1.8788,-1.8776,-1.8787,-1.8776,-1.8774,-1.8777,-1.8762,-1.879,-1.8782,-1.8765,-1.8738,-1.8779,-1.8792,-1.8797,-1.8721,-1.872,-1.8719,-1.8719,0,0,-1.887,-1.885,-1.8855,-1.8851,-1.8838,-1.8841,-1.8852,-1.8849,-1.8852,-1.8847,-1.8854,-1.8858,-1.8842,-1.8839,-1.8824,-1.8834,-1.8869,-1.8814,-1.8814,-1.8824,-1.89,-1.8912,-1.8919,-1.8857,-1.8858,-1.8859,-1.89,0,-1.891,-1.8926,-1.8907,-1.8927,-1.8931,-1.8904,-1.8913,-1.8907,-1.8896,-1.8899,-1.8887,-1.889,-1.8868,-1.8867,-1.8875,-1.8863,-1.8884,-1.886,-1.8864,-1.8864,-1.8866,-1.8926,-1.8939,-1.8979,-1.8905,-1.8906,-1.8907,0,-1.8959,-1.8957,-1.8977,-1.8964,-1.8965,-1.8973,-1.897,-1.8972,-1.8965,-1.8957,-1.8955,-1.8937,-1.8946,-1.8922,-1.8935,-1.8919,-1.892,-1.8914,-1.8915,-1.8914,-1.8887,-1.8925,-1.8991,-1.8996,-1.8915,-1.8914,-1.8914,0,-1.9006,-1.9008,-1.902,-1.9018,-1.9003,-1.9009,-1.9003,-1.8995,-1.8995,-1.8992,-1.8992,-1.8991,-1.899,-1.899,-1.8973,-1.8957,-1.8988,-1.8962,-1.8981,-1.8981,-1.8987,-1.8987,-1.9053,-1.899,-1.899,-1.8989,-1.8989,0,-1.9053,-1.9066,-1.9041,-1.9049,-1.9063,-1.9042,-1.9057,-1.9048,-1.9041,-1.9047,-1.9024,-1.903,-1.9007,-1.9011,-1.8997,-1.901,-1.901,-1.9003,-1.8999,-1.9005,-1.9006,-1.9004,-1.9,-1.8991,-1.8991,-1.899,-1.899,0,-1.9107,-1.9091,-1.9102,-1.9088,-1.9085,-1.9096,-1.9083,-1.909,-1.9079,-1.9086,-1.9087,-1.9069,-1.9072,-1.9055,-1.9055,-1.9047,-1.9065,-1.9057,-1.9068,-1.9065,-1.9084,-1.9082,-1.915,-1.9158,-1.9091,-1.9092,-1.9093,0,-1.9137,-1.9147,-1.9133,-1.9136,-1.9131,-1.9135,-1.9135,-1.9115,-1.9117,-1.911,-1.9117,-1.9119,-1.9118,-1.9125,-1.9112,-1.9113,-1.9104,-1.9128,-1.9103,-1.9109,-1.9103,-1.9102,-1.9103,-1.9132,-1.9133,-1.9134,-1.9134,0,-1.9193,-1.9184,-1.9185,-1.9184,-1.9185,-1.9183,-1.918,-1.9183,-1.9162,-1.9165,-1.9168,-1.9168,-1.9168,-1.917,-1.9168,-1.9162,-1.9145,-1.9142,-1.9147,-1.9151,-1.9157,-1.9154,-1.908,-1.914,-1.914,-1.9139,-1.9139,-1.9139,-1.9235,-1.9242,-1.9234,-1.9236,-1.9232,-1.923,-1.9235,-1.9225,-1.9227,-1.9226,-1.9215,-1.922,-1.9213,-1.9209,-1.9205,-1.9209,-1.9198,-1.9204,-1.9205,-1.9207,-1.921,-1.9157,-1.9209,-1.9209,-1.9209,-1.9208,-1.9208,0,-1.9289,-1.9282,-1.9285,-1.9281,-1.9283,-1.9267,-1.9263,-1.9265,-1.927,-1.9266,-1.9266,-1.927,-1.9272,-1.9261,-1.9261,-1.9267,-1.9259,-1.9268,-1.9266,-1.9265,-1.9221,-1.9217,-1.9274,-1.9274,-1.9274,-1.9274,-1.9274,-1.9274,-1.9317,-1.9328,-1.9319,-1.9329,-1.9323,-1.9328,-1.9327,-1.9325,-1.9321,-1.9326,-1.9328,-1.932,-1.9313,-1.9313,-1.9314,-1.9311,-1.9312,-1.9323,-1.9317,-1.9275,-1.9268,-1.9262,-1.9258,-1.9324,-1.9324,-1.9361,-1.9361,-1.9362]},{"header":{"parameterUnit":"m.s-1","parameterCategory":1,"la1":30.2991,"la2":30.254,"lo1":-89.0895,"lo2":-89.0444,"dy":0.0017,"dx":0.0017,"nx":28,"ny":28,"refTime":"2024-04-14T09:00:00:Z","depth":0,"parameterNumber":3,"parameterNumberName":"V-component_of_WINDS"},"data":[0,0,0,0,0,0,0,0,0,0,0,0,0,0,0,0,0,0,0,0,0,0,0,0,0,0,0,0,0,0,0,0,0,0,0,0,0,0,0,0,0,0,0,0,0,0,0,0,0,0,0,0,0,0,0,0,0,0,3.8953,3.8952,0,3.893,3.8929,3.8929,3.8946,3.8947,3.8948,3.8948,3.8919,3.8918,3.8916,0,0,0,0,0,0,0,0,0,0,0,0,0,3.9009,3.9008,3.8953,3.8952,3.8952,3.893,3.8929,3.8929,3.8946,3.8947,3.8948,3.8949,3.892,3.8918,3.8916,0,0,0,0,0,0,0,0,0,0,0,0,0,3.8985,3.9008,3.8953,3.8958,3.8958,3.893,3.8929,3.8929,3.8946,3.8947,3.8948,3.8949,3.892,3.8918,3.8916,3.8879,0,0,3.8909,3.8908,0,0,0,0,0,0,0,0,3.8986,3.8983,3.8958,3.8958,3.8958,3.8942,3.8939,3.8912,3.8945,3.895,3.8948,3.895,3.8926,3.8923,3.8916,3.8878,3.8877,3.8909,3.8908,3.8907,3.8906,0,0,0,0,0,0,0,3.8988,3.8984,3.8943,3.8957,3.8957,3.8961,3.8959,3.8934,3.8932,3.895,3.8951,3.8948,3.8926,3.8918,3.8915,3.8876,3.8909,3.8907,3.8906,3.8905,3.881,3.8809,0,0,0,0,0,0,3.899,3.8985,3.8944,3.8943,3.8975,3.8959,3.8956,3.8946,3.8932,3.8931,3.8948,3.8949,3.8921,3.8918,3.8914,3.8872,3.8907,3.8905,3.8903,3.8811,3.881,3.8808,0,0,0,0,0,0,3.8991,3.8986,3.8945,3.8964,3.8959,3.8957,3.8945,3.8945,3.8937,3.893,3.893,3.894,3.8922,3.8918,3.8889,3.8872,3.8904,3.8902,3.8813,3.8811,3.8809,3.8787,0,0,0,0,0,0,3.8992,3.8986,3.8973,3.8964,3.8958,3.8921,3.8943,3.8943,3.8934,3.8936,3.8923,3.8922,3.8923,3.8892,3.8887,3.8869,3.89,3.8814,3.8812,3.881,3.8789,3.8785,3.8781,0,0,0,0,0,3.8994,3.8966,3.8972,3.8967,3.8942,3.892,3.8916,3.8919,3.8932,3.8918,3.8915,3.8922,3.8875,3.8889,3.8883,3.8865,3.8815,3.8812,3.881,3.8791,3.8785,3.8781,0,0,0,0,0,0,3.8969,3.8964,3.8971,3.8939,3.893,3.8923,3.8905,3.8913,3.8898,3.89,3.8903,3.89,3.8871,3.8865,3.8881,3.883,3.8847,3.8843,3.8835,3.8829,3.8825,3.8827,3.8898,0,0,0,0,0,3.8961,3.8945,3.894,3.8912,3.8908,3.8907,3.8898,3.8901,3.8891,3.8887,3.888,3.8869,3.8852,3.884,3.8824,3.8789,3.8787,3.8773,3.8769,3.8765,3.8762,3.8745,3.8739,3.88,3.88,3.88,0,0,3.8941,3.8937,3.8926,3.8908,3.8901,3.8884,3.8904,3.8884,3.8871,3.8883,3.8857,3.8852,3.884,3.8808,3.8794,3.8802,3.8745,3.8762,3.8759,3.8758,3.8742,3.8736,3.8731,3.8798,3.8798,3.8798,0,0,3.8898,3.8893,3.887,3.8864,3.8855,3.8855,3.885,3.8842,3.884,3.8814,3.8824,3.8808,3.8777,3.8769,3.8761,3.8718,3.8725,3.8712,3.869,3.8673,3.8669,3.8664,3.865,3.8645,3.8709,3.8709,3.8709,0,3.8875,3.885,3.8857,3.8837,3.8829,3.8842,3.882,3.8813,3.8797,3.8791,3.8802,3.8766,3.8758,3.8726,3.8717,3.8709,3.8703,3.8713,3.8669,3.8665,3.8661,3.8648,3.8642,3.8707,3.8707,3.8708,3.8708,0,3.8823,3.8806,3.8789,3.8777,3.8767,3.8746,3.8749,3.8738,3.8743,3.8742,3.8716,3.8708,3.8692,3.8684,3.8687,3.8653,3.8659,3.8669,3.8686,3.8654,3.8641,3.8636,3.8705,3.8706,3.8706,3.8707,0,0,3.8761,3.8756,3.875,3.8746,3.8738,3.8724,3.8704,3.869,3.8681,3.8671,3.8654,3.863,3.8641,3.8631,3.8634,3.8619,3.8588,3.8631,3.8631,3.8624,3.8552,3.8545,3.8539,3.8593,3.8592,3.8591,3.8553,0,3.8718,3.8685,3.8692,3.8659,3.8644,3.8658,3.864,3.8634,3.8633,3.862,3.8618,3.8602,3.8616,3.8611,3.8597,3.8595,3.8574,3.8598,3.8578,3.8577,3.8581,3.8532,3.8524,3.8488,3.8548,3.8547,3.8547,0,3.8663,3.8655,3.8621,3.8618,3.8612,3.8597,3.8586,3.8573,3.8566,3.8567,3.8558,3.8565,3.8545,3.8563,3.8536,3.8552,3.8545,3.8542,3.8541,3.8539,3.856,3.8529,3.8476,3.8471,3.8539,3.8539,3.854,0,3.8623,3.8603,3.8581,3.8577,3.8572,3.8561,3.8559,3.8553,3.8545,3.8535,3.853,3.8517,3.851,3.85,3.8503,3.8516,3.8476,3.8494,3.8476,3.8476,3.8466,3.8467,3.8412,3.8461,3.8461,3.8461,3.8461,0,3.8575,3.8554,3.8563,3.8549,3.8527,3.8535,3.8512,3.8511,3.8506,3.8493,3.8503,3.849,3.8494,3.8481,3.8483,3.8461,3.8458,3.8458,3.8459,3.8457,3.8457,3.8452,3.8455,3.8459,3.846,3.846,3.846,0,3.8526,3.8531,3.8508,3.8508,3.8507,3.849,3.8489,3.8477,3.8478,3.8461,3.8457,3.8459,3.8445,3.8447,3.843,3.8431,3.8405,3.8408,3.8408,3.8409,3.8391,3.8393,3.8331,3.8324,3.8377,3.8376,3.8376,0,3.8495,3.848,3.8479,3.8471,3.8469,3.8456,3.8449,3.8457,3.8449,3.8442,3.843,3.8417,3.8407,3.8383,3.8382,3.837,3.8374,3.8353,3.8372,3.8372,3.8375,3.8376,3.8375,3.8349,3.8348,3.8348,3.8348,0,3.844,3.8444,3.8434,3.8426,3.8418,3.8411,3.8405,3.8399,3.8406,3.8396,3.8383,3.8376,3.836,3.8348,3.8337,3.8333,3.8342,3.8342,3.8337,3.8336,3.8337,3.8337,3.8398,3.8343,3.8344,3.8344,3.8344,3.8344,3.8399,3.8388,3.8386,3.8375,3.8372,3.8367,3.8356,3.8358,3.8348,3.8337,3.8342,3.8327,3.8322,3.8309,3.8305,3.8293,3.8301,3.8294,3.8292,3.829,3.8289,3.8339,3.8291,3.8291,3.8291,3.8291,3.8291,0,3.8346,3.8346,3.8336,3.833,3.8322,3.8333,3.8327,3.832,3.8307,3.8303,3.8294,3.828,3.8268,3.8268,3.8257,3.8248,3.8252,3.8245,3.8246,3.8245,3.8282,3.8288,3.8242,3.8242,3.8242,3.8242,3.8242,3.8242,3.8317,3.8298,3.8303,3.8283,3.8283,3.827,3.8267,3.8262,3.8259,3.8244,3.8235,3.8236,3.8233,3.8223,3.8213,3.8213,3.8209,3.8201,3.8203,3.8237,3.8242,3.8247,3.8252,3.82,3.82,3.8167,3.8167,3.8167]}]]